sat.trackr.live / text

‹ back to catalog

STARLINK-3109

NORAD 49143 · 2021-082P

PAYLOAD ACTIVE UNKNOWN

§ Identity

Operator
Country
US
Launch date
2021-09-14
Launch site
AFWTR
Launch vehicle
Mass (kg)
RCS (m²)

Purposes: comms

External: N2YO · Heavens-Above · Gunter

§ Orbital elements

Epoch: 2026-05-25T02:11:13.816032Z

Period
96.16 min
Inclination
70.0001°
Eccentricity
0.0003167
Mean motion
14.97533355 rev/d
Perigee alt
572.3 km
Apogee alt
576.7 km
Semi-major
6,952.7 km
B*
5.8552e-5
RAAN
82.8550°
Arg perigee
263.8163°
Mean anomaly
96.2635°
Rev number
25,900

§ Raw data

STARLINK-31091 49143U 21082P   26145.09113213  .00000592  00000+0  58552-4 0  99962 49143  70.0001  82.8550 0003167 263.8163  96.2635 14.97533355259007

JSON: /api/v1/satellites/49143 · /tle

For live sub-satellite position, see the globe view (requires WebGL).

§ Visibility from observer

Set your observer location to see the next 7 days of passes ≥ 10°. The values pass through the URL so the page stays shareable.

No JS? Fill the form by hand. The geolocation button needs JavaScript.